Regional Weather Roundup
Issued by NWS Sioux Falls, SD

Home | Current Version | Previous Version | Graphics & Text | Print | Product List | Glossary On
Versions: 1 2 3 4 5 6 7 8 9 10 11 12 13 14 15 16 17 18 19 20 21 22 23 24 25 26 27 28 29 30 31 32 33 34 35 36 37 38 39 40 41 42 43 44 45 46 47 48 49 50
000
ASUS43 KFSD 170302
RWRFSD

WEATHER ROUNDUP FOR SE SOUTH DAKOTA/SW MINNESOTA/NW IOWA
NATIONAL WEATHER SERVICE SIOUX FALLS SD
900 PM CST TUE JAN 16 2018

NOTE: "FAIR" INDICATES FEW OR NO CLOUDS BELOW 12,000 FEET WITH NO
SIGNIFICANT WEATHER AND OR OBSTRUCTIONS TO VISIBILITY.


SDZ038>040-050-052>070-170400-
SOUTHEAST SOUTH DAKOTA

CITY           SKY/WX    TMP DP  RH WIND       PRES   REMARKS
BROOKINGS      CLOUDY    -2  -6  83 S7        30.50F WCI -15
CHAMBERLAIN    CLEAR      8   2  75 SE8       30.42F WCI  -4
HURON          CLEAR      2  -3  80 S9        30.49F WCI -13
MADISON        FAIR       0   0 100 S10       30.47F WCI -17
MITCHELL       CLEAR      5  -3  69 S12       30.53F WCI -11
SIOUX FALLS    CLOUDY     0  -3  87 SW6       30.53F WCI -12
WINNER         FAIR      16   1  51 S21       30.38F WCI  -1
YANKTON        CLOUDY     1  -3  83 SE3       30.57F
$$

MNZ071-072-080-081-089-090-097-098-170400-
SOUTHWEST MINNESOTA

CITY           SKY/WX    TMP DP  RH WIND       PRES   REMARKS
FAIRMONT       CLOUDY     1  -4  79 W8        30.59S WCI -13
JACKSON        CLOUDY     0  -6  78 W7        30.55S WCI -13
LUVERNE        CLEAR     -4  -8  84 CALM      30.55F
MARSHALL       CLOUDY     1  -4  79 S6        30.55R WCI -10
MONTEVIDEO     CLOUDY     1  -2  85 SW8       30.51F WCI -12
PIPESTONE      CLOUDY    -2  -6  84 W7        30.50S WCI -16
REDWOOD FALLS  CLOUDY    -2  -6  83 SW9       30.54F WCI -18
WINDOM         CLOUDY     1 -11  55 SW9       30.54S WCI -14
WORTHINGTON    CLEAR      0  -4  83 SW8       30.54F WCI -14
$$

IAZ001>003-012>014-020>022-031-032-NEZ013-014-SDZ071-170400-
NORTHWEST IOWA

CITY           SKY/WX    TMP DP  RH WIND       PRES   REMARKS
CHEROKEE       CLOUDY    -3  -6  89 S3        30.61F
DENISON        CLEAR      0  -4  85 CALM      30.65F
ESTHERVILLE    CLEAR     -1  -4  87 W7        30.56F WCI -14
LE MARS        CLEAR     -2  -6  84 S5        30.62S WCI -12
ORANGE CITY    CLEAR      0  -2  92 CALM      30.58F
SHELDON        CLOUDY    -2  -6  84 SW6       30.56F WCI -14
SIOUX CITY     CLOUDY    -1  -5  82 S5        30.64F WCI -11
SPENCER        CLOUDY    -5 -10  79 SW6       30.57F WCI -18
STORM LAKE     CLOUDY     0  -4  85 W10       30.58F WCI -17
$$

ABBREVIATIONS USED IN REMARKS
   TC - TEMPERATURE IN CELSIUS
  WCI - WIND CHILL INDEX
   HX - HEAT INDEX
  VSB - VISIBILITY





USA.gov is the U.S. government's official web portal to all federal, state and local government web resources and services.